Simultaneous Nadir Overpasses (SNOs) Predictions

Prediction of SNOs between METOP-A and NOAA-19 Satellite Orbit:

Table of predicted SNOs for the next 14.0 days since TLE Epoch: 9/27/2019
Index Date (METOP-A) Time (METOP-A) Lat,Lon (METOP-A) SZA (METOP-A ) Date (NOAA-19) Time (NOAA-19) Lat,Lon (NOAA-19) SZA (NOAA-19 ) Distance(km) Time Diff (sec)
1 10/03/2019 23:04:55 80.00,-153.38 84.45 10/03/2019 23:03:41 79.99,-153.33 84.43 1.27 74
2 10/03/2019 23:55:36 -80.01, 14.05 95.52 10/03/2019 23:54:42 -79.99, 13.91 95.56 3.27 54
3 10/04/2019 00:46:17 79.99,-178.83 84.46 10/04/2019 00:45:42 80.00,-178.91 84.46 1.98 35
4 10/04/2019 01:36:58 -80.00, -11.40 95.51 10/04/2019 01:36:42 -79.98, -11.36 95.54 2.66 16
5 10/04/2019 02:27:39 79.98, 155.72 84.47 10/04/2019 02:27:42 79.98, 155.82 84.49 2.07 3
6 10/04/2019 03:18:20 -79.99, -36.85 95.50 10/04/2019 03:18:43 -79.98, -36.93 95.51 1.78 23
7 10/04/2019 04:09:01 79.97, 130.27 84.49 10/04/2019 04:09:43 79.99, 130.24 84.52 2.65 42
8 10/04/2019 04:59:42 -79.98, -62.30 95.49 10/04/2019 05:00:43 -79.96, -62.20 95.48 2.33 61




NCC Satellite Simultaneous Nadir Overpasses (SNOs) Prediction Service
